DECAYED

STARLINK-1405, 45702 (Decayed)

Orbit data source: Space-Track

STARLINK-1405, 45702 was a payload satellite owned by SpaceX/Seattle (US) in LEO that was launched on Thu, 04 Jun 2020 UTC via an FALCON 9 launch vehicle from the Air Force Eastern Test Range (AFETR). Payload-class satellites include a variety of spacecraft equipped with specific instruments for various scientific and technological missions. These include communications satellites like Starlink; space stations such as the ISS; scientific satellites like the Hubble; Earth observation satellites from companies like Planet Labs, Umbra, and HawkEye 360; GPS; miniature CubeSats for education and research; and military/defense satellites.

Not visible in the next 10 days
Identifier
45702, 2020-035AX
Orbit
Decayed
Country
Flag of USUS
Related business
Manufacturer
SpaceX/Seattle
Mission
Decayed Commercial Communications
Bus & Motor
STARLINK, Unknown motor
Mass
260 kg wet, ~248 kg dry
Launch date (UTC)
2020-06-04 (5 years ago)
Launch vehicle
FALCON 9
Launch site
Air Force Eastern Test Range (AFETR)
Object type
Payload
Rocket body
Debris
Shape & HBR
Box + 1 Pan, 4.4 m
Radar Cross Section
13.562 m², Large (>1 m²)

Expand to show TLE details & history
Last TLE update: 4 weeks ago

TLE from 4 weeks ago
0 STARLINK-1405
1 45702U 20035AX  25233.26208566  .08680548  12111-4  12931-2 0  9995
2 45702  53.0165 153.0614 0008584 235.6805 124.3426 16.33521214289823
Epoch: 2025-08-21T06:17Z
TLE epoch observation values (Epoch: 2025-08-21T06:17:24.201Z)
Latitude
-0.00004°
Longitude
88.88245°
Altitude
187.198 km
Speed
7.793 km/s
True Right ascension
10h 12m 14s
True Declination
0° 00' 00"
Sunlit
Object was in daylight at epoch
Visualization orbit readout
Latitude
Unknown
Longitude
Unknown
Altitude
Unknown
Speed
Unknown
Apparent Right ascension
Unknown
Apparent Declination
Unknown
Sunlit
N/A
Visualization observer readout
Local Sidereal Time
17:17:49
Azimuth
Unknown
Elevation
Unknown
Doppler factor
Unknown
Orbital elements
Apogee altitude
189.018 km
Perigee altitude
177.753 km
Semi-major axis
6,561.523 km
Eccentricity
0.00086
Inclination
53.0165°
RAAN
153.0614°
Arg. of periapsis
235.6805°
True anomaly
124.42377°
Mean anomaly
124.3426°
Eccentric anomaly
124.38319°
Mean motion
4.08353 °/min
Orbital period
88.16 mins
BSTAR
0.0012931
Loading maneuver chart data...
Computing Atmospheric mass density...

Documentation

Showing up to 5 results
|